This is the latest recevied weather packets stored in our database for station/object W8AN. If no packets are shown the sender has not sent any weather packets the latest 10 day(s).
| Time | Temp. | Humidity | Pressure | Rain* | Wind** | Luminosity | Snow |
|---|---|---|---|---|---|---|---|
| 1777359451 | 15.56° C | 84% | 4259.2 hPa | 0 mm | - | 0 W/m² | - |
| 1777359147 | 15.56° C | 84% | 4259.2 hPa | 0 mm | - | 0 W/m² | - |
| 1777358845 | 15.56° C | 85% | 4258.9 hPa | 0 mm | - | 0 W/m² | - |
| 1777358542 | 15.56° C | 85% | 4259.1 hPa | 0 mm | - | 0 W/m² | - |
| 1777358240 | 15.56° C | 85% | 4259.3 hPa | 1.78 mm | - | 0 W/m² | - |
| 1777357938 | 15.56° C | 86% | 4260.2 hPa | 1.78 mm | - | 0 W/m² | - |
| 1777357635 | 15.56° C | 86% | 4260.4 hPa | 1.78 mm | - | 0 W/m² | - |
| 1777357331 | 15.56° C | 86% | 4262.6 hPa | 1.27 mm | - | 0 W/m² | - |
| 1777357029 | 15.56° C | 86% | 4263.3 hPa | 3.05 mm | - | 0 W/m² | - |
| 1777356725 | 15.56° C | 86% | 4263.5 hPa | 3.05 mm | - | 0 W/m² | - |
| 1777356423 | 16.11° C | 86% | 4263.6 hPa | 4.32 mm | - | 0 W/m² | - |
| 1777356119 | 16.11° C | 86% | 4263.9 hPa | 4.83 mm | - | 0 W/m² | - |
| 1777355816 | 16.11° C | 86% | 4264.2 hPa | 3.05 mm | - | 0 W/m² | - |
| 1777355513 | 16.11° C | 86% | 4264.9 hPa | 4.32 mm | - | 0 W/m² | - |
| 1777355210 | 16.11° C | 86% | 4265.1 hPa | 7.87 mm | - | 0 W/m² | - |
| 1777354906 | 16.11° C | 86% | 4265.2 hPa | 7.87 mm | - | 0 W/m² | - |
| 1777354602 | 16.11° C | 86% | 4265.3 hPa | 7.87 mm | - | 0 W/m² | - |
| 1777354298 | 16.11° C | 86% | 4265.5 hPa | 7.87 mm | - | 0 W/m² | - |
| 1777353995 | 16.11° C | 85% | 4265.4 hPa | 10.67 mm | - | 0 W/m² | - |
| 1777353691 | 16.11° C | 85% | 4265.9 hPa | 8.89 mm | - | 0 W/m² | - |
| 1777353390 | 16.11° C | 85% | 4265.8 hPa | 7.87 mm | - | 0 W/m² | - |
| 1777353087 | 16.11° C | 85% | 4265.6 hPa | 7.11 mm | - | 0 W/m² | - |
| 1777352786 | 16.67° C | 84% | 4265.3 hPa | 7.87 mm | - | 0 W/m² | - |
| 1777352484 | 16.67° C | 84% | 4265.3 hPa | 8.89 mm | - | 0 W/m² | - |
| 1777352181 | 16.67° C | 84% | 4265.3 hPa | 7.87 mm | - | 0 W/m² | - |
* Rain latest hour (hover to see other rain measurements)
** Current wind speed in m/s (hover to see current wind gust speed)